{"data":{"norad_id":57452,"epoch":"2026-09-21T23:06:21.822048Z","epoch_age_seconds":81253,"freshness":"FRESH","line1":"1 57452U 23106A   26264.96275257  .00005702  00000+0  23801-3 0  9998","line2":"2 57452  35.0043 169.1098 0002331 237.1601 122.8890 15.23005191175913","mean_motion":15.23005191,"eccentricity":0.0002331,"inclination_deg":35.0043,"raan_deg":169.1098,"arg_perigee_deg":237.1601,"mean_anomaly_deg":122.889,"bstar":0.00023801,"rev_number":17591,"period_min":94.549907545259,"perigee_km":495.17945489679,"apogee_km":498.38454213389,"semimajor_km":6874.9189985153,"source":"CELESTRAK","updated_at":"2026-09-22T09:00:26.197217Z"}}